Location: Newark
(43.0000°N, 1.6781°W)
Time: 10:41:33
(UTC+00:00)

A-11 Canister half - Visible Passes

Search period start: 18 April 2021 00:00
Search period end: 28 April 2021 00:00
Orbit: 1525 x 1683 km, 47.3° (Epoch: 17 April)

Date Brightness Start Highest point End Pass type
(mag) Time Alt. Az. Time Alt. Az. Time Alt. Az.
18 Apr 9.2 20:14:36 10° WNW 20:24:52 82° NNE 20:32:25 21° ESE visible
18 Apr 9.3 22:20:06 10° WNW 22:29:43 50° SW 22:30:42 49° SSW visible
19 Apr 10.9 00:28:38 10° W 00:28:59 11° W 00:28:59 11° W visible
19 Apr 9.2 19:52:53 10° WNW 20:03:09 81° NNE 20:11:50 16° ESE visible
19 Apr 9.3 21:58:22 10° WNW 22:08:04 53° SW 22:10:07 46° S visible
20 Apr 10.8 00:06:27 10° W 00:08:24 13° WSW 00:08:24 13° WSW visible
20 Apr 9.3 19:31:11 10° WNW 19:41:25 79° NNE 19:51:16 11° ESE visible
20 Apr 9.3 21:36:39 10° WNW 21:46:25 55° SW 21:49:34 42° S visible
20 Apr 10.7 23:44:21 10° W 23:47:51 15° WSW 23:47:51 15° WSW visible
21 Apr 9.3 19:09:28 10° WNW 19:19:42 78° NNE 19:29:51 10° ESE visible
21 Apr 9.3 21:14:55 10° WNW 21:24:46 57° SW 21:29:03 36° SSE visible
21 Apr 10.6 23:22:20 10° W 23:27:20 17° WSW 23:27:20 17° WSW visible
22 Apr 9.4 20:53:12 10° WNW 21:03:06 59° SW 21:08:33 29° SSE visible
22 Apr 10.5 23:00:21 10° W 23:06:37 19° SW 23:06:51 19° SW visible
23 Apr 9.4 20:31:30 10° WNW 20:41:27 62° SW 20:48:06 23° SE visible
23 Apr 10.4 22:38:24 10° W 22:45:02 20° SW 22:46:24 20° SW visible
24 Apr 9.4 20:09:47 10° WNW 20:19:47 64° SW 20:27:41 18° SE visible
24 Apr 10.4 22:16:29 10° W 22:23:28 21° SW 22:26:00 19° SW visible
25 Apr 9.4 19:48:04 10° WNW 19:58:07 66° SW 20:07:19 13° SE visible
25 Apr 10.4 21:54:36 10° W 22:01:51 23° SW 22:05:38 18° SSW visible
26 Apr 9.4 19:26:22 10° WNW 19:36:26 69° SSW 19:46:24 10° SE visible
26 Apr 10.4 21:32:44 10° W 21:40:16 24° SW 21:45:18 16° SSW visible
27 Apr 10.4 21:10:53 10° WNW 21:18:40 26° SW 21:25:02 14° S visible
